New Market, Maryland
Current Conditions -  °F | °C
As of 3:50 PM on Friday 31 Oct 2014 (Local Time) from KFDK Reporting Station
Overcast Overcast  
Wind Chill: 57°   Ceiling: 6000
Heat Index: 57°   Visibility: 10mi
Dew Point: 34°   Wind: 7mph
Humidity: 41%   Direction: 60°ENE
Pressure: 29.9"   Gusts: NA
Location:  39.38°N, 77.27°W
Report Text: KFDK 311950Z 06006KT 10SM OVC060 14/01 A2990
Loading
Personal Weather Stations






























Interactive Weather Map
Tropical Storm Tracking
New forecast layout! Learn more

10-Day Weather Forecast

Advertisements
Track Severe Weather on mobile